EW3281 Weather Reports


Display with metric or nautical units.
time (UTC)temp
F
wind
direction
speed
MPH
gust
MPH
rain 1hr
in
rain 24hr
in
rain mn
in
humidity
%
barometer
mb
20260831070519 66 223 0.0 0.0 0.00 0.94 0.94 96 1015.7
20260831070016 66 223 0.0 0.0 0.00 0.94 0.94 96 1015.7
20260831065514 66 223 0.0 0.0 0.00 0.94 0.94 96 1015.7
20260831065013 66 223 0.0 0.0 0.00 0.94 0.94 96 1015.6
20260831064513 67 236 0.0 0.0 0.00 0.94 0.94 96 1015.7
20260831064112 67 236 0.0 0.0 0.00 0.94 0.94 96 1015.6
20260831063519 67 236 0.0 0.0 0.00 0.94 0.94 96 1015.6
20260831063019 67 236 0.0 0.0 0.00 0.94 0.94 96 1015.5
20260831062519 67 236 0.0 0.0 0.00 0.94 0.94 96 1015.6
20260831062024 67 236 0.0 0.0 0.00 0.94 0.94 96 1015.5
20260831061518 67 236 0.0 0.0 0.00 0.94 0.94 96 1015.6
20260831061019 67 236 0.0 0.0 0.00 0.94 0.94 96 1015.6
20260831060517 67 218 0.0 0.0 0.00 0.94 0.94 96 1015.5
20260831060017 68 205 0.0 0.0 0.00 0.94 0.94 96 1015.5
20260831055517 68 205 0.0 0.0 0.00 0.94 0.94 96 1015.5
20260831055018 68 205 0.0 0.0 0.00 0.94 0.94 96 1015.4
20260831054517 68 205 0.0 0.0 0.00 0.94 0.94 96 1015.3
20260831054117 68 205 0.0 0.0 0.00 0.94 0.94 96 1015.3
20260831053510 68 205 0.0 0.0 0.00 0.94 0.94 96 1015.3
20260831053023 68 205 0.0 0.0 0.00 0.94 0.94 96 1015.3
20260831052509 68 205 0.0 0.0 0.00 0.94 0.94 96 1015.2
20260831052008 68 205 0.0 0.0 0.00 0.94 0.94 96 1015.2
20260831051508 68 205 0.0 0.0 0.00 0.94 0.94 96 1015.2
20260831051008 68 205 0.0 0.0 0.00 0.94 0.94 96 1015.2
20260831050508 68 205 0.0 0.0 0.00 0.94 0.94 96 1015.2
20260831050022 68 205 0.0 0.0 0.00 0.94 0.94 96 1015.2
20260831045508 68 205 0.0 0.0 0.00 0.94 0.94 96 1015.2
20260831045007 68 205 0.0 0.0 0.00 0.94 0.94 96 1015.1
20260831044506 68 205 0.0 0.0 0.15 0.94 0.94 95 1015.0
20260831044105 68 205 0.0 0.0 0.17 0.94 0.94 95 1015.1
20260831043506 68 205 0.0 0.0 0.27 0.94 0.94 95 1015.1
20260831043006 68 205 0.0 0.0 0.46 0.94 0.94 95 1015.1
20260831042506 68 205 0.0 0.0 0.66 0.94 0.94 95 1015.1
20260831042005 68 205 0.0 0.0 0.74 0.94 0.94 95 1015.1
20260831041505 68 205 0.0 0.0 0.76 0.94 0.94 95 1015.2
20260831041004 68 205 0.0 0.0 0.79 0.94 0.94 95 1015.2
20260831040504 68 205 0.0 0.0 0.83 0.94 0.94 95 1015.2
20260831040004 68 205 0.0 0.0 0.84 0.94 0.94 94 1015.1
20260831035506 68 205 0.0 0.0 0.86 0.94 0.94 94 1015.0
20260831035002 69 205 0.0 0.0 0.87 0.94 0.94 94 1015.2
20260831034502 69 205 0.0 0.0 0.89 0.93 0.93 94 1015.2
20260831034101 70 46 0.0 0.0 0.75 0.79 0.79 94 1015.2
20260831033501 70 356 0.0 0.0 0.73 0.76 0.76 94 1015.2
20260831033003 70 309 0.0 0.0 0.54 0.56 0.56 94 1015.5
20260831032502 70 309 0.0 0.0 0.38 0.40 0.40 94 1015.6
20260831032100 70 280 0.0 0.0 0.25 0.26 0.26 94 1015.5
20260831031601 70 279 0.0 0.0 0.19 0.20 0.20 94 1015.5
20260831031059 70 279 0.0 0.0 0.16 0.17 0.17 93 1015.4
20260831030559 70 242 0.0 0.0 0.13 0.14 0.14 93 1015.4
20260831030057 70 304 0.0 0.0 0.09 0.10 0.10 93 1015.5
20260831025559 70 3 0.0 0.0 0.08 0.09 0.09 93 1015.4
20260831025056 70 3 0.0 0.0 0.07 0.08 0.08 92 1015.3
20260831024557 70 266 0.0 0.0 0.07 0.07 0.07 92 1015.3
20260831024054 71 7 0.0 0.0 0.04 0.04 0.04 91 1015.4
20260831023559 71 303 0.0 0.0 0.04 0.04 0.04 91 1015.4
20260831023053 71 308 0.0 0.0 0.03 0.03 0.03 91 1015.4
20260831022552 71 257 0.0 0.0 0.02 0.02 0.02 91 1015.3
20260831022051 71 248 0.0 0.0 0.01 0.01 0.01 90 1015.2
20260831021550 71 245 0.0 0.0 0.01 0.01 0.01 90 1015.2
20260831021049 71 270 0.0 0.0 0.01 0.01 0.01 90 1015.2
20260831020552 71 235 0.0 0.0 0.01 0.01 0.01 90 1015.2
20260831020052 71 11 0.0 0.0 0.01 0.01 0.01 90 1015.2
20260831015545 71 232 0.0 0.0 0.01 0.01 0.01 89 1015.3
20260831015044 71 198 0.0 0.0 0.01 0.01 0.01 89 1015.3
20260831014543 71 311 0.0 0.0 0.01 0.01 0.01 89 1015.4
20260831014042 72 300 0.0 0.0 0.00 0.00 0.00 88 1015.2
20260831013541 72 146 0.0 0.0 0.00 0.00 0.00 88 1015.2
20260831013043 72 233 0.0 0.0 0.00 0.00 0.00 88 1015.2
20260831012541 72 222 0.0 0.0 0.00 0.00 0.00 87 1015.4
20260831012037 72 202 0.0 0.0 0.00 0.00 0.00 87 1015.3
20260831011544 73 155 0.0 0.0 0.00 0.00 0.00 86 1015.2
20260831011036 73 297 0.0 0.0 0.00 0.00 0.00 85 1015.4
20260831010535 73 184 0.0 0.0 0.00 0.00 0.00 85 1015.4
20260831010042 73 225 0.0 0.0 0.00 0.00 0.00 84 1015.4
20260831005534 73 193 0.0 0.0 0.00 0.00 0.00 84 1015.3
20260831005035 73 218 0.0 0.0 0.00 0.00 0.00 84 1015.3
20260831004535 73 134 0.0 0.0 0.00 0.00 0.00 84 1015.1
20260831004136 73 252 0.0 0.0 0.00 0.00 0.00 83 1015.2
20260831003536 73 252 0.0 0.0 0.00 0.00 0.00 83 1015.1
20260831003037 73 44 0.0 0.0 0.00 0.00 0.00 83 1015.1
20260831002532 73 250 0.0 0.0 0.00 0.00 0.00 82 1015.1
20260831002034 73 219 0.0 0.0 0.00 0.00 0.00 82 1015.1
20260831001531 73 340 0.0 0.0 0.00 0.00 0.00 82 1015.0
20260831001032 73 38 0.0 0.0 0.00 0.00 0.00 81 1015.0
20260831000529 74 258 0.0 0.0 0.00 0.00 0.00 81 1014.9
20260831000032 74 267 0.0 0.0 0.00 0.00 0.00 80 1014.8
20260830235529 74 297 0.0 0.0 0.00 0.00 0.00 79 1014.8
20260830235028 74 228 0.0 0.0 0.00 0.00 0.00 79 1014.8
20260830234538 74 340 0.0 0.0 0.00 0.00 0.00 78 1014.7
20260830234028 74 354 0.0 0.0 0.00 0.00 0.00 77 1014.7
20260830233531 74 243 0.0 0.0 0.00 0.00 0.00 77 1014.7
20260830233031 74 27 0.0 0.0 0.00 0.00 0.00 76 1014.7
20260830232534 74 243 0.0 0.0 0.00 0.00 0.00 75 1014.8
20260830232029 74 284 0.0 0.0 0.00 0.00 0.00 74 1014.9
20260830231530 74 243 0.0 0.0 0.00 0.00 0.00 74 1014.9
20260830231028 74 248 0.0 0.0 0.00 0.00 0.00 73 1014.9
20260830230527 74 286 0.0 0.0 0.00 0.00 0.00 73 1014.8
20260830230027 75 311 0.0 0.0 0.00 0.00 0.00 72 1014.8
20260830225526 75 267 0.0 0.0 0.00 0.00 0.00 71 1014.7
20260830225027 75 256 0.0 0.0 0.00 0.00 0.00 70 1014.8
20260830224524 75 250 0.0 0.0 0.00 0.00 0.00 70 1014.9
20260830224024 75 312 0.0 0.0 0.00 0.00 0.00 68 1015.0
20260830223526 75 326 0.0 0.0 0.00 0.00 0.00 68 1015.0
20260830223024 75 255 0.0 0.0 0.00 0.00 0.00 68 1015.0
20260830222524 76 257 0.0 0.0 0.00 0.00 0.00 67 1015.1
20260830222023 76 7 0.0 0.0 0.00 0.00 0.00 66 1015.2
20260830221532 76 210 0.0 0.0 0.00 0.00 0.00 65 1015.1
20260830221022 76 217 0.0 0.0 0.00 0.00 0.00 65 1015.1
20260830220521 76 247 0.0 0.0 0.00 0.00 0.00 64 1015.2
20260830220020 76 325 0.0 0.0 0.00 0.00 0.00 63 1015.2
20260830215522 76 264 0.0 0.0 0.00 0.00 0.00 63 1015.2
20260830215020 76 211 0.0 0.0 0.00 0.00 0.00 63 1015.1
20260830214520 76 25 0.0 0.0 0.00 0.00 0.00 62 1015.1
20260830214021 77 284 0.0 0.0 0.00 0.00 0.00 62 1015.3
20260830213515 77 288 0.0 0.0 0.00 0.00 0.00 61 1015.3
20260830213017 77 324 0.0 0.0 0.00 0.00 0.00 61 1015.3
20260830212515 77 204 0.0 0.0 0.00 0.00 0.00 60 1015.3
20260830212013 77 293 0.0 0.0 0.00 0.00 0.00 59 1015.3
20260830211513 77 296 0.0 0.0 0.00 0.00 0.00 58 1015.4
20260830211013 77 358 0.0 0.0 0.00 0.00 0.00 57 1015.3
20260830210513 77 360 0.0 0.0 0.00 0.00 0.00 57 1015.2
20260830210012 78 8 0.0 0.0 0.00 0.00 0.00 56 1015.2
20260830205511 78 221 0.0 0.0 0.00 0.00 0.00 56 1015.2
20260830205011 78 226 0.0 0.0 0.00 0.00 0.00 55 1015.2
20260830204511 78 199 0.0 0.0 0.00 0.00 0.00 54 1015.3
20260830204010 78 224 0.0 0.0 0.00 0.00 0.00 52 1015.3
20260830203509 78 25 0.0 0.0 0.00 0.00 0.00 53 1015.3
20260830203009 79 240 0.0 0.0 0.00 0.00 0.00 57 1015.4
20260830202509 79 64 0.0 0.0 0.00 0.00 0.00 61 1015.3
20260830202009 79 350 0.0 0.0 0.00 0.00 0.00 61 1015.2
20260830201509 79 11 0.0 0.0 0.00 0.00 0.00 60 1015.3
20260830201008 80 29 0.0 0.0 0.00 0.00 0.00 59 1015.2
20260830200508 80 139 0.0 0.0 0.00 0.00 0.00 58 1015.2
20260830200022 80 161 0.0 0.0 0.00 0.00 0.00 59 1015.3
20260830195506 80 274 0.0 0.0 0.00 0.00 0.00 60 1015.4
20260830195006 80 113 0.0 0.0 0.00 0.00 0.00 57 1015.5
20260830194505 81 32 0.0 0.0 0.00 0.00 0.00 55 1015.6
20260830194004 81 162 0.0 0.0 0.00 0.00 0.00 52 1015.6
20260830193047 81 142 0.0 0.0 0.00 0.00 0.00 49 1015.8
20260830192547 81 237 0.0 0.0 0.00 0.00 0.00 50 1015.9
20260830192046 81 11 0.0 0.0 0.00 0.00 0.00 50 1015.9
20260830191546 81 270 0.0 0.0 0.00 0.00 0.00 50 1016.0
20260830191045 81 269 0.0 0.0 0.00 0.00 0.00 50 1016.1
20260830190547 81 197 0.0 0.0 0.00 0.00 0.00 50 1016.1
20260830190100 82 344 0.0 1.0 0.00 0.00 0.00 51 1016.1
20260830185544 82 295 0.0 1.0 0.00 0.00 0.00 50 1016.2
20260830185045 82 21 0.0 0.0 0.00 0.00 0.00 49 1016.3
20260830184543 83 72 0.0 1.0 0.00 0.00 0.00 48 1016.3
20260830184042 84 283 0.0 0.0 0.00 0.00 0.00 47 1016.3
20260830183522 84 224 0.0 0.0 0.00 0.00 0.00 47 1016.3
20260830183021 84 250 0.0 1.0 0.00 0.00 0.00 47 1016.3
20260830182521 84 195 0.0 1.0 0.00 0.00 0.00 48 1016.4
20260830182021 84 39 0.0 1.0 0.00 0.00 0.00 46 1016.4
20260830181519 84 229 0.0 0.0 0.00 0.00 0.00 45 1016.5
20260830181018 85 127 0.0 0.0 0.00 0.00 0.00 45 1016.6
20260830180518 86 22 0.0 1.0 0.00 0.00 0.00 46 1016.7
20260830180017 86 46 0.0 1.0 0.00 0.00 0.00 44 1016.7
20260830175517 86 154 0.0 2.0 0.00 0.00 0.00 44 1016.7
20260830175019 86 198 0.0 0.0 0.00 0.00 0.00 43 1016.7
20260830174517 86 169 0.0 0.0 0.00 0.00 0.00 44 1016.8
20260830174115 86 164 0.0 0.0 0.00 0.00 0.00 45 1016.8
20260830173512 86 293 0.0 0.0 0.00 0.00 0.00 45 1016.8
20260830173010 86 226 0.0 1.0 0.00 0.00 0.00 45 1016.9
20260830172508 85 219 0.0 1.0 0.00 0.00 0.00 48 1016.9
20260830172010 85 225 0.0 1.0 0.00 0.00 0.00 46 1017.0
20260830171506 84 293 0.0 1.0 0.00 0.00 0.00 48 1017.1
20260830171006 84 52 0.0 0.0 0.00 0.00 0.00 47 1017.0
20260830170505 84 136 0.0 0.0 0.00 0.00 0.00 47 1017.1
20260830170005 84 193 0.0 0.0 0.00 0.00 0.00 45 1017.1
20260830165508 84 172 0.0 3.0 0.00 0.00 0.00 45 1017.1
20260830165003 84 8 0.0 3.0 0.00 0.00 0.00 46 1017.2
20260830164503 84 202 0.0 0.0 0.00 0.00 0.00 47 1017.3
20260830164004 84 220 0.0 4.0 0.00 0.00 0.00 47 1017.2
20260830163043 84 209 0.0 4.0 0.00 0.00 0.00 48 1017.2
20260830162543 83 124 0.0 1.0 0.00 0.00 0.00 46 1017.3
20260830162040 84 15 0.0 1.0 0.00 0.00 0.00 46 1017.3
20260830161549 83 210 0.0 0.0 0.00 0.00 0.00 52 1017.4
20260830161038 83 288 0.0 0.0 0.00 0.00 0.00 50 1017.4
20260830160537 82 210 0.0 3.0 0.00 0.00 0.00 51 1017.5
20260830160041 81 238 0.0 3.0 0.00 0.00 0.00 52 1017.6
20260830155538 81 10 0.0 0.0 0.00 0.00 0.00 54 1017.6
20260830155033 80 214 0.0 0.0 0.00 0.00 0.00 55 1017.7
20260830154532 79 251 0.0 0.0 0.00 0.00 0.00 54 1017.8
20260830154035 78 76 0.0 0.0 0.00 0.00 0.00 58 1017.9
20260830153029 78 238 0.0 0.0 0.00 0.00 0.00 58 1017.9
20260830152530 78 219 0.0 1.0 0.00 0.00 0.00 58 1018.0
20260830152027 78 243 0.0 1.0 0.00 0.00 0.00 59 1018.1
20260830151527 78 221 0.0 1.0 0.00 0.00 0.00 62 1018.2
20260830151027 77 222 0.0 0.0 0.00 0.00 0.00 62 1018.3
20260830150527 77 242 0.0 0.0 0.00 0.00 0.00 64 1018.2
20260830150027 77 219 0.0 0.0 0.00 0.00 0.00 63 1018.2
20260830145526 77 55 0.0 0.0 0.00 0.00 0.00 63 1018.3
20260830145025 76 194 0.0 0.0 0.00 0.00 0.00 64 1018.4
20260830144529 76 238 0.0 0.0 0.00 0.00 0.00 66 1018.5
20260830144023 75 106 0.0 0.0 0.00 0.00 0.00 68 1018.6
20260830143023 74 322 0.0 0.0 0.00 0.00 0.00 69 1018.6
20260830142522 74 227 0.0 0.0 0.00 0.00 0.00 71 1018.7
20260830142022 74 45 0.0 0.0 0.00 0.00 0.00 71 1018.7
20260830141522 73 204 0.0 0.0 0.00 0.00 0.00 71 1018.7
20260830141021 73 178 0.0 0.0 0.00 0.00 0.00 71 1018.7
20260830140522 73 56 0.0 0.0 0.00 0.00 0.00 68 1018.7
20260830140024 73 210 0.0 0.0 0.00 0.00 0.00 72 1018.7
20260830135521 72 282 0.0 0.0 0.00 0.00 0.00 72 1018.8
20260830135022 72 249 0.0 0.0 0.00 0.00 0.00 74 1018.8
20260830134530 71 221 0.0 0.0 0.00 0.00 0.00 75 1018.9
20260830134022 71 249 0.0 0.0 0.00 0.00 0.00 76 1019.0
20260830133024 71 249 0.0 0.0 0.00 0.00 0.00 76 1019.1
20260830132524 71 299 0.0 0.0 0.00 0.00 0.00 75 1019.1
20260830132028 70 229 0.0 0.0 0.00 0.00 0.00 75 1019.2
20260830131528 70 288 0.0 0.0 0.00 0.00 0.00 74 1019.2
20260830131025 70 248 0.0 0.0 0.00 0.00 0.00 74 1019.1
20260830130524 69 261 0.0 0.0 0.00 0.00 0.00 75 1019.1
20260830130037 69 337 0.0 0.0 0.00 0.00 0.00 76 1019.2
20260830125524 69 242 0.0 0.0 0.00 0.00 0.00 77 1019.2
20260830125026 69 234 0.0 0.0 0.00 0.00 0.00 77 1019.3
20260830124524 68 253 0.0 0.0 0.00 0.00 0.00 78 1019.4
20260830124024 68 237 0.0 0.0 0.00 0.00 0.00 78 1019.5
20260830123047 68 252 0.0 0.0 0.00 0.00 0.00 79 1019.4
20260830122546 67 288 0.0 0.0 0.00 0.00 0.00 80 1019.4
20260830122046 67 249 0.0 0.0 0.00 0.00 0.00 80 1019.4
20260830121545 67 217 0.0 0.0 0.00 0.00 0.00 81 1019.5
20260830121045 67 215 0.0 0.0 0.00 0.00 0.00 84 1019.5
20260830120545 66 274 0.0 0.0 0.00 0.00 0.00 84 1019.5
20260830120049 66 264 0.0 0.0 0.00 0.00 0.00 85 1019.5
20260830115545 66 198 0.0 0.0 0.00 0.00 0.00 86 1019.5
20260830115049 65 319 0.0 0.0 0.00 0.00 0.00 88 1019.4
20260830114545 65 233 0.0 0.0 0.00 0.00 0.00 89 1019.5
20260830114045 64 259 0.0 0.0 0.00 0.00 0.00 90 1019.4
20260830113032 64 259 0.0 0.0 0.00 0.00 0.00 90 1019.4
20260830112532 63 259 0.0 0.0 0.00 0.00 0.00 91 1019.5
20260830112032 63 333 0.0 0.0 0.00 0.00 0.00 91 1019.4
20260830111533 63 333 0.0 0.0 0.00 0.00 0.00 91 1019.4
20260830111034 63 333 0.0 0.0 0.00 0.00 0.00 92 1019.3
20260830110533 62 333 0.0 0.0 0.00 0.00 0.00 92 1019.3
20260830110032 62 333 0.0 0.0 0.00 0.00 0.00 91 1019.4
20260830105531 61 333 0.0 0.0 0.00 0.00 0.00 91 1019.3
20260830105030 61 333 0.0 0.0 0.00 0.00 0.00 91 1019.5
20260830104552 61 333 0.0 0.0 0.00 0.00 0.00 91 1019.4
20260830104033 60 333 0.0 0.0 0.00 0.00 0.00 91 1019.4
20260830103018 60 333 0.0 0.0 0.00 0.00 0.00 91 1019.5
20260830102518 60 333 0.0 0.0 0.00 0.00 0.00 91 1019.6
20260830102016 60 333 0.0 0.0 0.00 0.00 0.00 91 1019.6
20260830101516 59 333 0.0 0.0 0.00 0.00 0.00 91 1019.6
20260830101019 59 333 0.0 0.0 0.00 0.00 0.00 91 1019.6
20260830100516 59 333 0.0 0.0 0.00 0.00 0.00 91 1019.6
20260830100017 59 333 0.0 0.0 0.00 0.00 0.00 91 1019.6
20260830095515 59 333 0.0 0.0 0.00 0.00 0.00 91 1019.5
20260830095015 59 333 0.0 0.0 0.00 0.00 0.00 92 1019.7
20260830094514 59 333 0.0 0.0 0.00 0.00 0.00 92 1019.6
20260830094015 59 333 0.0 0.0 0.00 0.00 0.00 92 1019.6
20260830093044 58 333 0.0 0.0 0.00 0.00 0.00 92 1019.6
20260830092543 58 336 0.0 0.0 0.00 0.00 0.00 92 1019.5
20260830092041 58 336 0.0 0.0 0.00 0.00 0.00 92 1019.5
20260830091540 59 336 0.0 0.0 0.00 0.00 0.00 92 1019.5
20260830091041 59 336 0.0 0.0 0.00 0.00 0.00 92 1019.6
20260830090540 59 336 0.0 0.0 0.00 0.00 0.00 92 1019.5
20260830090039 59 336 0.0 0.0 0.00 0.00 0.00 92 1019.6
20260830085538 59 336 0.0 0.0 0.00 0.00 0.00 92 1019.6
20260830085039 59 336 0.0 0.0 0.00 0.00 0.00 92 1019.8
20260830084538 59 295 0.0 0.0 0.00 0.00 0.00 92 1019.8
20260830084037 59 295 0.0 0.0 0.00 0.00 0.00 92 1019.8
20260830083027 59 295 0.0 0.0 0.00 0.00 0.00 92 1019.9
20260830082510 59 295 0.0 0.0 0.00 0.00 0.00 92 1020.1
20260830082009 58 295 0.0 0.0 0.00 0.00 0.00 92 1020.2
20260830081510 58 295 0.0 0.0 0.00 0.00 0.00 92 1020.2
20260830081008 58 295 0.0 0.0 0.00 0.00 0.00 92 1020.2
20260830080511 58 295 0.0 0.0 0.00 0.00 0.00 92 1020.3
20260830080008 58 295 0.0 0.0 0.00 0.00 0.00 91 1020.2
20260830075508 58 295 0.0 0.0 0.00 0.00 0.00 91 1020.2
20260830075009 59 295 0.0 0.0 0.00 0.00 0.00 91 1020.1
20260830074507 59 295 0.0 0.0 0.00 0.00 0.00 91 1020.2
20260830074007 59 295 0.0 0.0 0.00 0.00 0.00 92 1020.2
20260830073006 59 295 0.0 0.0 0.00 0.00 0.00 92 1020.1
20260830072506 59 295 0.0 0.0 0.00 0.00 0.00 92 1020.0
20260830072007 59 295 0.0 0.0 0.00 0.00 0.00 92 1020.0
20260830071506 59 295 0.0 0.0 0.00 0.00 0.00 92 1019.9
20260830071006 59 295 0.0 0.0 0.00 0.00 0.00 92 1019.9